Alva, OK

12:07 PM CDT on August 27, 2016 (GMT -0500)
Alva Regional

Weather History for KAVK - October, 2013

Change the Weather History Date:

Monday, October 28, 2013

  Actual Average Record
Temperature  
Mean Temperature 54 °F -  
Max Temperature 64 °F 67 °F 89 °F (1950)
Min Temperature 44 °F 43 °F 26 °F (2012)
Degree Days  
Heating Degree Days 11    
Growing Degree Days 4 (Base 50)    
Moisture  
Dew Point 53 °F    
Average Humidity 88    
Maximum Humidity 100    
Minimum Humidity 57    
Precipitation  
Precipitation 0.00 in - - ()
Sea Level Pressure  
Sea Level Pressure 29.97 in    
Wind  
Wind Speed 13 mph (SSE)    
Max Wind Speed 23 mph    
Max Gust Speed 29 mph    
Visibility 7 miles    
Events Fog    
Averages and records for this station are not official NWS values.
T = Trace of Precipitation, MM = Missing Value Source: NWS Daily Summary

Daily Weather History Graph

Daily Weather History Graph

Search for Another Location

Airport or City:

Trip Planner

Search our weather history database for the weather conditions in past years. The results will help you decide how hot, cold, wet, or windy it might be!

Date:

Astronomy

Oct. 28, 2013 Rise Set
Actual Time 7:54 AM CDT 6:41 PM CDT
Civil Twilight 7:28 AM CDT 7:08 PM CDT
Nautical Twilight 6:57 AM CDT 7:38 PM CDT
Astronomical Twilight 6:27 AM CDT 8:08 PM CDT
Moon 1:58 AM CDT (10/28) 3:16 PM CDT (10/28)
Length of Visible Light 11h 40m
Length of Day
10h 46m
Waning Crescent, 34% of the Moon is Illuminated
Oct 28
Waning Crescent
Nov 3
New
Nov 9
First Quarter
Nov 17
Full
Nov 25
Last Quarter

Hourly Weather History & Observations

Time (CDT) Temp. Windchill Dew Point Humidity Pressure Visibility Wind Dir Wind Speed Gust Speed Precip Events Conditions
12:05 AM 46.4 °F 41.1 °F 32.0 °F 57% 29.95 in 10.0 mi South 11.5 mph - N/A   Clear
12:30 AM 46.4 °F 41.1 °F 33.8 °F 62% 29.95 in 10.0 mi South 11.5 mph - N/A   Clear
12:45 AM 44.6 °F 38.8 °F 35.6 °F 71% 29.94 in 10.0 mi South 11.5 mph - N/A   Clear
1:05 AM 44.6 °F 38.8 °F 35.6 °F 71% 29.94 in 10.0 mi South 11.5 mph - N/A   Clear
1:30 AM 44.6 °F 39.2 °F 35.6 °F 71% 29.94 in 10.0 mi South 10.4 mph - N/A   Clear
1:45 AM 44.6 °F 38.8 °F 37.4 °F 76% 29.94 in 10.0 mi South 11.5 mph - N/A   Clear
2:05 AM 44.6 °F 39.7 °F 37.4 °F 76% 29.94 in 10.0 mi South 9.2 mph - N/A   Clear
2:30 AM 44.6 °F 39.2 °F 39.2 °F 81% 29.94 in 10.0 mi South 10.4 mph - N/A   Clear
2:45 AM 44.6 °F 40.2 °F 39.2 °F 81% 29.95 in 10.0 mi South 8.1 mph - N/A   Clear
3:05 AM 44.6 °F 39.2 °F 41.0 °F 87% 29.95 in 10.0 mi South 10.4 mph - N/A   Clear
3:25 AM 44.6 °F 40.2 °F 41.0 °F 87% 29.94 in 10.0 mi South 8.1 mph - N/A   Clear
3:45 AM 44.6 °F 39.7 °F 41.0 °F 87% 29.94 in 10.0 mi SSE 9.2 mph - N/A   Clear
4:05 AM 44.6 °F 40.2 °F 41.0 °F 87% 29.95 in 10.0 mi South 8.1 mph - N/A   Clear
4:25 AM 44.6 °F 40.2 °F 42.8 °F 93% 29.95 in 9.0 mi South 8.1 mph - N/A   Clear
4:45 AM 44.6 °F 39.7 °F 44.6 °F 100% 29.94 in 7.0 mi SSE 9.2 mph - N/A   Clear
5:05 AM 46.4 °F 41.9 °F 44.6 °F 93% 29.94 in 5.0 mi SSE 9.2 mph - N/A   Clear
5:25 AM 46.4 °F 42.9 °F 46.4 °F 100% 29.95 in 3.0 mi SSE 6.9 mph - N/A   Clear
5:45 AM 46.4 °F 42.9 °F 46.4 °F 100% 29.95 in 2.5 mi SSE 6.9 mph - N/A   Scattered Clouds
6:05 AM 46.4 °F 42.4 °F 46.4 °F 100% 29.96 in 0.2 mi SSE 8.1 mph - N/A Fog Fog
6:25 AM 48.2 °F - 48.2 °F 100% 29.97 in 0.2 mi SSE 8.1 mph - N/A Fog Fog
6:45 AM 48.2 °F - 48.2 °F 100% 29.97 in 0.2 mi SSE 6.9 mph - N/A Fog Fog
7:05 AM 50.0 °F - 50.0 °F 100% 29.98 in 0.2 mi South 10.4 mph - N/A Fog Fog
7:25 AM 51.8 °F - 51.8 °F 100% 29.98 in 0.5 mi South 11.5 mph - N/A Fog Fog
7:45 AM 51.8 °F - 51.8 °F 100% 29.98 in 1.0 mi South 15.0 mph - N/A   Overcast
8:05 AM 51.8 °F - 51.8 °F 100% 29.98 in 2.0 mi South 13.8 mph - N/A   Overcast
8:25 AM 53.6 °F - 53.6 °F 100% 29.98 in 1.8 mi SSE 15.0 mph - N/A   Overcast
8:45 AM 53.6 °F - 53.6 °F 100% 30.00 in 3.0 mi South 11.5 mph - N/A   Overcast
9:05 AM 53.6 °F - 53.6 °F 100% 30.00 in 4.0 mi SSE 16.1 mph - N/A   Overcast
9:25 AM 55.4 °F - 55.4 °F 100% 30.01 in 5.0 mi South 17.3 mph 23.0 mph N/A   Overcast
9:50 AM 55.4 °F - 55.4 °F 100% 30.03 in 7.0 mi South 16.1 mph - N/A   Overcast
10:05 AM 57.2 °F - 55.4 °F 94% 30.03 in 7.0 mi South 17.3 mph - N/A   Overcast
10:25 AM 57.2 °F - 55.4 °F 94% 30.03 in 9.0 mi South 16.1 mph - N/A   Overcast
10:45 AM 59.0 °F - 55.4 °F 88% 30.03 in 10.0 mi SSE 18.4 mph - N/A   Overcast
11:05 AM 62.6 °F - 55.4 °F 77% 30.03 in 10.0 mi South 17.3 mph 25.3 mph N/A   Overcast
11:25 AM 62.6 °F - 55.4 °F 77% 30.02 in 10.0 mi SSE 18.4 mph 23.0 mph N/A   Overcast
11:50 AM 62.6 °F - 55.4 °F 77% 30.03 in 10.0 mi South 23.0 mph 26.5 mph N/A   Overcast
12:05 PM 62.6 °F - 57.2 °F 82% 30.03 in 10.0 mi South 23.0 mph - N/A   Overcast
12:25 PM 62.6 °F - 57.2 °F 82% 30.02 in 10.0 mi South 19.6 mph 25.3 mph N/A   Overcast
12:45 PM 62.6 °F - 57.2 °F 82% 30.02 in 10.0 mi South 19.6 mph - N/A   Overcast
1:05 PM 64.4 °F - 57.2 °F 77% 30.01 in 10.0 mi South 20.7 mph - N/A   Overcast
1:25 PM 62.6 °F - 57.2 °F 82% 30.01 in 10.0 mi SSE 17.3 mph 21.9 mph N/A   Overcast
1:45 PM 62.6 °F - 57.2 °F 82% 30.00 in 10.0 mi South 18.4 mph 24.2 mph N/A   Overcast
2:10 PM 62.6 °F - 57.2 °F 82% 29.99 in 10.0 mi SSE 17.3 mph - N/A   Overcast
2:25 PM 62.6 °F - 59.0 °F 88% 29.98 in 10.0 mi SSE 17.3 mph - N/A   Overcast
2:45 PM 62.6 °F - 59.0 °F 88% 29.97 in 10.0 mi SSE 17.3 mph - N/A   Overcast
3:05 PM 64.4 °F - 59.0 °F 83% 29.96 in 10.0 mi SSE 16.1 mph 20.7 mph N/A   Overcast
3:25 PM 64.4 °F - 59.0 °F 83% 29.95 in 10.0 mi SSE 17.3 mph 23.0 mph N/A   Overcast
3:45 PM 64.4 °F - 59.0 °F 83% 29.95 in 9.0 mi SSE 18.4 mph 26.5 mph N/A   Overcast
4:05 PM 64.4 °F - 59.0 °F 83% 29.95 in 9.0 mi SSE 19.6 mph 25.3 mph N/A   Overcast
4:25 PM 64.4 °F - 59.0 °F 83% 29.95 in 10.0 mi SSE 19.6 mph 24.2 mph N/A   Overcast
4:45 PM 62.6 °F - 59.0 °F 88% 29.95 in 9.0 mi SE 20.7 mph - N/A   Overcast
5:05 PM 62.6 °F - 59.0 °F 88% 29.96 in 9.0 mi SSE 16.1 mph 23.0 mph N/A   Overcast
5:25 PM 62.6 °F - 59.0 °F 88% 29.96 in 8.0 mi SSE 15.0 mph 23.0 mph N/A   Overcast
5:45 PM 62.6 °F - 59.0 °F 88% 29.97 in 8.0 mi SSE 15.0 mph - N/A   Overcast
6:05 PM 62.6 °F - 59.0 °F 88% 29.96 in 7.0 mi SSE 17.3 mph 23.0 mph N/A   Overcast
6:30 PM 62.6 °F - 59.0 °F 88% 29.97 in 7.0 mi SSE 17.3 mph 23.0 mph N/A   Overcast
6:45 PM 62.6 °F - 59.0 °F 88% 29.97 in 7.0 mi SSE 16.1 mph 21.9 mph N/A   Overcast
7:05 PM 62.6 °F - 59.0 °F 88% 29.97 in 6.0 mi SE 15.0 mph 20.7 mph N/A   Overcast
7:25 PM 62.6 °F - 59.0 °F 88% 29.97 in 5.0 mi SE 17.3 mph 23.0 mph N/A   Overcast
7:45 PM 62.6 °F - 59.0 °F 88% 29.97 in 5.0 mi SE 20.7 mph - N/A   Overcast
8:05 PM 62.6 °F - 59.0 °F 88% 29.98 in 4.0 mi SE 18.4 mph 24.2 mph N/A   Overcast
8:25 PM 62.6 °F - 59.0 °F 88% 29.98 in 5.0 mi SE 18.4 mph 24.2 mph N/A   Overcast
8:45 PM 62.6 °F - 59.0 °F 88% 29.99 in 4.0 mi SE 17.3 mph 21.9 mph N/A   Overcast
9:10 PM 60.8 °F - 59.0 °F 94% 30.00 in 5.0 mi ESE 16.1 mph - N/A   Overcast
9:25 PM 60.8 °F - 59.0 °F 94% 30.00 in 5.0 mi SE 15.0 mph 19.6 mph N/A   Overcast
9:45 PM 60.8 °F - 59.0 °F 94% 29.99 in 5.0 mi SE 16.1 mph - N/A   Overcast
10:05 PM 60.8 °F - 59.0 °F 94% 29.99 in 5.0 mi SE 15.0 mph - N/A   Overcast
10:25 PM 60.8 °F - 59.0 °F 94% 29.97 in 5.0 mi SE 17.3 mph 23.0 mph N/A   Overcast
10:50 PM 62.6 °F - 59.0 °F 88% 29.97 in 5.0 mi SE 19.6 mph - N/A   Overcast
11:05 PM 62.6 °F - 59.0 °F 88% 29.96 in 5.0 mi SE 21.9 mph 26.5 mph N/A   Overcast
11:25 PM 62.6 °F - 60.8 °F 94% 29.95 in 5.0 mi SE 21.9 mph - N/A   Overcast
11:45 PM 62.6 °F - 60.8 °F 94% 29.94 in 4.0 mi SE 23.0 mph 28.8 mph N/A   Overcast